Location: Amsterdam
(30.7274°N, 84.4357°W)
Time: 00:00:58
(UTC+00:00)

Explorer 11/Cluster Stage 4 - Pass Details

Date: 19 February 2026
Orbit: 463 x 1176 km, 28.8° (Epoch: 9 March)

Event Time Altitude Azimuth Distance (km) Brightness Sun altitude
Rises 21:16:21 0° 272° (W) 2,561 10.1 25.5°
Reaches altitude 10° 21:18:39 10° 265° (W) 1,633 9.5 25.1°
Maximum altitude 21:22:10 45° 192° (SSW) 634 7.0 24.5°
Drops below altitude 10° 21:25:37 10° 118° (ESE) 1,609 8.0 23.8°
Sets 21:27:53 0° 112° (ESE) 2,519 8.9 23.4°
